Tracking 29487 objects as of 11-Sep-2024
HD Live streaming from Space Station
objects crossing your sky now

STARLINK-4041

Track STARLINK-4041 now!
10-day predictions
STARLINK-4041 is classified as:


NORAD ID: 52695
Int'l Code: 2022-053AR
Perigee: 546.0 km
Apogee: 547.7 km
Inclination: 53.2 °
Period: 95.4 minutes
Semi major axis: 6917 km
RCS: Unknown
Launch date: May 18, 2022
Source: United States (US)
Launch site: AIR FORCE EASTERN TEST RANGE (AFETR)
Your satellite tracking list
Your tracking list is empty




NASA's NSSDC Master Catalog

Two Line Element Set (TLE):
1 52695U 22053AR  24254.79898952  .00000488  00000-0  48762-4 0  9994
2 52695  53.2170  75.0262 0001230  90.6710 269.4423 15.08845668128831
Source of the keplerian elements: AFSPC